Warroad, MN

1:23 AM CDT on May 26, 2018 (GMT -0500)
Warroad International-Carlson

Weather History for KRRT - October, 2012

Change the Weather History Date:

Saturday, October 13, 2012

  Actual Average Record
Temperature  
Mean Temperature 44 °F -  
Max Temperature 55 °F 52 °F 81 °F (1956)
Min Temperature 33 °F 32 °F 13 °F (1979)
Degree Days  
Heating Degree Days 21    
Moisture  
Dew Point 32 °F    
Average Humidity 65    
Maximum Humidity 76    
Minimum Humidity 54    
Precipitation  
Precipitation 0.00 in - - ()
Sea Level Pressure  
Sea Level Pressure 29.73 in    
Wind  
Wind Speed 7 mph (SSE)    
Max Wind Speed 10 mph    
Max Gust Speed -    
Visibility 10 miles    
Events      
Averages and records for this station are not official NWS values.
T = Trace of Precipitation, MM = Missing Value Source: NWS Daily Summary

Daily Weather History Graph

Daily Weather History Graph

Search for Another Location

Airport or City:

Astronomy

Oct. 13, 2012 Rise Set
Actual Time 7:39 AM CDT 6:34 PM CDT
Civil Twilight 7:07 AM CDT 7:06 PM CDT
Nautical Twilight 6:31 AM CDT 7:42 PM CDT
Astronomical Twilight 5:54 AM CDT 8:19 PM CDT
Moon 5:22 AM CDT (10/13) 5:23 PM CDT (10/13)
Length of Visible Light 11h 58m
Length of Day
10h 54m
Waning Crescent, 5% of the Moon is Illuminated
Oct 13
Waning Crescent
Oct 15
New
Oct 21
First Quarter
Oct 29
Full
Nov 6
Last Quarter

Hourly Weather History & Observations

Time (CDT) Temp. Windchill Dew Point Humidity Pressure Visibility Wind Dir Wind Speed Gust Speed Precip Events Conditions
12:14 AM 35.6 °F 29.2 °F 24.8 °F 65% 29.86 in 10.0 mi SSE 8.1 mph - N/A   Clear
12:54 AM 33.8 °F 27.7 °F 24.8 °F 70% 29.84 in 10.0 mi SE 6.9 mph - N/A   Clear
1:14 AM 33.8 °F 28.6 °F 24.8 °F 70% 29.84 in 10.0 mi SE 5.8 mph - N/A   Clear
1:34 AM 33.8 °F 27.7 °F 23.0 °F 65% 29.83 in 10.0 mi SSE 6.9 mph - N/A   Clear
1:54 AM 35.6 °F 28.6 °F 24.8 °F 65% 29.81 in 10.0 mi SSE 9.2 mph - N/A   Clear
2:15 AM 35.6 °F 28.6 °F 24.8 °F 65% 29.79 in 10.0 mi SSE 9.2 mph - N/A   Clear
2:34 AM 35.6 °F 29.2 °F 24.8 °F 65% 29.78 in 10.0 mi SSE 8.1 mph - N/A   Clear
2:54 AM 35.6 °F 28.6 °F 24.8 °F 65% 29.77 in 10.0 mi SSE 9.2 mph - N/A   Clear
3:15 AM 35.6 °F 29.2 °F 24.8 °F 65% 29.76 in 10.0 mi SSE 8.1 mph - N/A   Clear
3:34 AM 35.6 °F 29.2 °F 24.8 °F 65% 29.75 in 10.0 mi SSE 8.1 mph - N/A   Clear
3:54 AM 35.6 °F 29.9 °F 24.8 °F 65% 29.74 in 10.0 mi SSE 6.9 mph - N/A   Clear
4:15 AM 35.6 °F 29.2 °F 24.8 °F 65% 29.73 in 10.0 mi SSE 8.1 mph - N/A   Clear
4:34 AM 35.6 °F 29.2 °F 24.8 °F 65% 29.72 in 10.0 mi SE 8.1 mph - N/A   Clear
4:54 AM 35.6 °F 30.7 °F 24.8 °F 65% 29.72 in 10.0 mi SSE 5.8 mph - N/A   Clear
5:15 AM 35.6 °F 30.7 °F 24.8 °F 65% 29.71 in 10.0 mi SSE 5.8 mph - N/A   Clear
5:34 AM 35.6 °F 32.8 °F 24.8 °F 65% 29.70 in 10.0 mi South 3.5 mph - N/A   Clear
5:54 AM 35.6 °F 29.2 °F 24.8 °F 65% 29.69 in 10.0 mi SSE 8.1 mph - N/A   Clear
6:14 AM 35.6 °F 30.7 °F 24.8 °F 65% 29.68 in 10.0 mi SSE 5.8 mph - N/A   Clear
6:34 AM 35.6 °F 31.7 °F 24.8 °F 65% 29.69 in 10.0 mi SSE 4.6 mph - N/A   Clear
6:54 AM 35.6 °F 30.7 °F 24.8 °F 65% 29.69 in 10.0 mi South 5.8 mph - N/A   Clear
7:14 AM 37.4 °F 33.8 °F 26.6 °F 65% 29.69 in 10.0 mi South 4.6 mph - N/A   Clear
7:34 AM 35.6 °F 29.9 °F 26.6 °F 70% 29.69 in 10.0 mi South 6.9 mph - N/A   Clear
7:54 AM 35.6 °F 29.9 °F 26.6 °F 70% 29.69 in 10.0 mi South 6.9 mph - N/A   Clear
8:14 AM 37.4 °F 32.8 °F 26.6 °F 65% 29.69 in 10.0 mi South 5.8 mph - N/A   Clear
8:54 AM 39.2 °F 34.2 °F 28.4 °F 65% 29.69 in 10.0 mi South 6.9 mph - N/A   Clear
9:34 AM 42.8 °F 38.0 °F 30.2 °F 61% 29.68 in 10.0 mi South 8.1 mph - N/A   Clear
9:55 AM 44.6 °F 41.4 °F 32.0 °F 61% 29.68 in 10.0 mi South 5.8 mph - N/A   Clear
10:14 AM 46.4 °F 44.3 °F 33.8 °F 62% 29.69 in 10.0 mi South 4.6 mph - N/A   Clear
10:34 AM 48.2 °F - 35.6 °F 62% 29.70 in 10.0 mi SSW 5.8 mph - N/A   Clear
10:55 AM 50.0 °F - 37.4 °F 62% 29.69 in 10.0 mi SSW 10.4 mph - N/A   Clear
11:14 AM 48.2 °F - 37.4 °F 66% 29.69 in 10.0 mi SSW 8.1 mph - N/A   Clear
11:34 AM 48.2 °F - 37.4 °F 66% 29.69 in 10.0 mi SW 4.6 mph - N/A   Clear
11:54 AM 50.0 °F - 37.4 °F 62% 29.69 in 10.0 mi SSW 5.8 mph - N/A   Clear
12:14 PM 51.8 °F - 39.2 °F 62% 29.69 in 10.0 mi South 4.6 mph - N/A   Clear
12:35 PM 51.8 °F - 37.4 °F 58% 29.68 in 10.0 mi SW 3.5 mph - N/A   Clear
12:54 PM 51.8 °F - 39.2 °F 62% 29.68 in 10.0 mi WSW 3.5 mph - N/A   Clear
1:14 PM 51.8 °F - 39.2 °F 62% 29.68 in 10.0 mi West 4.6 mph - N/A   Clear
1:35 PM 53.6 °F - 39.2 °F 58% 29.68 in 10.0 mi SW 3.5 mph - N/A   Clear
1:54 PM 55.4 °F - 39.2 °F 54% 29.67 in 10.0 mi Calm Calm - N/A   Clear
2:14 PM 55.4 °F - 39.2 °F 54% 29.67 in 10.0 mi NNE 3.5 mph - N/A   Clear
2:34 PM 51.8 °F - 41.0 °F 67% 29.68 in 10.0 mi NE 5.8 mph - N/A   Clear
3:14 PM 51.8 °F - 39.2 °F 62% 29.68 in 10.0 mi NE 8.1 mph - N/A   Clear
3:34 PM 51.8 °F - 39.2 °F 62% 29.69 in 10.0 mi NE 10.4 mph - N/A   Clear
3:54 PM 51.8 °F - 39.2 °F 62% 29.69 in 10.0 mi NE 6.9 mph - N/A   Clear
4:14 PM 51.8 °F - 39.2 °F 62% 29.70 in 10.0 mi NE 6.9 mph - N/A   Clear
4:34 PM 51.8 °F - 39.2 °F 62% 29.70 in 10.0 mi NE 5.8 mph - N/A   Clear
4:54 PM 53.6 °F - 39.2 °F 58% 29.71 in 10.0 mi NNE 4.6 mph - N/A   Clear
5:14 PM 51.8 °F - 39.2 °F 62% 29.71 in 10.0 mi ENE 4.6 mph - N/A   Clear
5:34 PM 53.6 °F - 39.2 °F 58% 29.72 in 10.0 mi North 4.6 mph - N/A   Clear
5:54 PM 53.6 °F - 39.2 °F 58% 29.73 in 10.0 mi NNE 3.5 mph - N/A   Clear
6:14 PM 46.4 °F - 39.2 °F 76% 29.73 in 10.0 mi Calm Calm - N/A   Clear
6:34 PM 46.4 °F - 39.2 °F 76% 29.74 in 10.0 mi Calm Calm - N/A   Clear
7:14 PM 46.4 °F 44.3 °F 35.6 °F 66% 29.75 in 10.0 mi North 4.6 mph - N/A   Clear
7:33 PM 44.6 °F 43.1 °F 35.6 °F 71% 29.77 in 10.0 mi North 3.5 mph - N/A   Clear
7:54 PM 44.6 °F 41.4 °F 35.6 °F 71% 29.78 in 10.0 mi North 5.8 mph - N/A   Clear
8:14 PM 42.8 °F 41.1 °F 33.8 °F 70% 29.79 in 10.0 mi NNW 3.5 mph - N/A   Clear
8:33 PM 42.8 °F 40.1 °F 33.8 °F 70% 29.79 in 10.0 mi NNW 4.6 mph - N/A   Clear
8:54 PM 42.8 °F 39.3 °F 33.8 °F 70% 29.79 in 10.0 mi NNW 5.8 mph - N/A   Clear
9:14 PM 42.8 °F 39.3 °F 33.8 °F 70% 29.80 in 10.0 mi NNW 5.8 mph - N/A   Clear
9:33 PM 42.8 °F 38.6 °F 33.8 °F 70% 29.81 in 10.0 mi NW 6.9 mph - N/A   Clear
9:54 PM 41.0 °F 37.1 °F 32.0 °F 70% 29.82 in 10.0 mi NW 5.8 mph - N/A   Clear
10:14 PM 41.0 °F 36.4 °F 32.0 °F 70% 29.82 in 10.0 mi NNW 6.9 mph - N/A   Clear
10:54 PM 39.2 °F 34.2 °F 32.0 °F 75% 29.83 in 10.0 mi NW 6.9 mph - N/A   Clear
11:14 PM 37.4 °F 32.1 °F 30.2 °F 75% 29.83 in 10.0 mi NW 6.9 mph - N/A   Clear
11:34 PM 37.4 °F 32.1 °F 30.2 °F 75% 29.83 in 10.0 mi NW 6.9 mph - N/A   Clear